This demonstration page uses our WeatherBlox Daily Observations layout. Learn more.

Left ArrowRight Arrow

39.51506, -84.39828

Hourly Observations for July 2, 2021

Temp ( °F °C ) Dew Point ( °F °C ) Humidity (%) Winds ( mph kmh ) Pressure ( in mb ) Visibility ( mi km ) Precip ( " mm )
12:15 am 00:15 Clear 68 20.2 64 18 87 87 NNE 6 9 29.91 1013 10 16 N/A
12:35 am 00:35 Clear 68 20 65 18.2 89 89 N 5 7 29.92 1013 10 16 N/A
12:55 am 00:55 Clear 67 19.3 65 18.3 94 94 N 3 6 29.92 1013 10 16 N/A
1:15 am 01:15 Clear 66 18.7 65 18.3 98 98 N N/A 29.92 1013 10 16 N/A
1:35 am 01:35 Clear 65 18.5 64 18 97 97 N 6 9 29.93 1013 10 16 N/A
1:55 am 01:55 Clear 65 18.2 64 17.9 98 98 N 6 9 29.93 1014 10 16 N/A
2:15 am 02:15 Clear 65 18.1 64 18 99 99 N 5 7 29.93 1014 10 16 N/A
2:35 am 02:35 Clear 65 18.1 64 18 99 99 N 6 9 29.93 1014 10 16 N/A
2:55 am 02:55 Clear 64 18 64 18 100 100 N 5 7 29.93 1014 10 16 N/A
3:15 am 03:15 Clear 64 18 64 18 100 100 N 3 6 29.93 1014 10 16 N/A
3:35 am 03:35 Clear 63 17 N/A N/A N 6 9 29.93 1014 10 16 N/A
3:55 am 03:55 Clear 64 18 N/A N/A N 6 9 29.94 1014 10 16 N/A
4:15 am 04:15 Clear 64 17.7 64 17.7 100 100 NNE 7 11 29.94 1014 10 16 N/A
4:35 am 04:35 Clear 63 17 63 17 100 100 N 7 11 29.94 1014 10 16 N/A
4:55 am 04:55 Clear 63 17 N/A N/A N 7 11 29.95 1014 10 16 N/A
5:15 am 05:15 Clear 63 17 N/A N/A NNE 7 11 29.95 1014 10 16 N/A
5:35 am 05:35 Clear 62 16.9 62 16.7 99 99 NNE 6 9 29.96 1015 10 16 N/A
5:55 am 05:55 Clear 62 16.6 61 16.2 98 98 N 6 9 29.97 1015 10 16 N/A
6:15 am 06:15 Sunny 62 16.4 61 16 98 98 NNE 8 13 29.97 1015 10 16 N/A
6:35 am 06:35 Sunny 61 16.3 60 15.6 96 96 NNE 6 9 29.98 1015 10 16 N/A
6:55 am 06:55 Sunny 62 16.4 60 15.6 95 95 N 5 7 29.99 1016 10 16 N/A
7:15 am 07:15 Sunny 62 16.8 60 15.7 93 93 N 6 9 29.99 1016 10 16 N/A
7:35 am 07:35 Sunny 63 17.2 60 15.7 91 91 NNE 7 11 30.00 1016 10 16 N/A
7:55 am 07:55 Partly Cloudy 64 17.5 60 15.6 89 89 NNE 8 13 30.00 1016 10 16 N/A
8:15 am 08:15 Sunny 65 18.2 61 16 87 87 N 9 15 30.01 1016 10 16 N/A
8:35 am 08:35 Sunny 65 18.5 61 15.9 85 85 N 9 15 30.01 1016 10 16 N/A
8:55 am 08:55 Sunny 66 18.7 61 16 84 84 N 10 17 30.02 1017 10 16 N/A
9:15 am 09:15 Sunny 66 19 59 14.8 77 77 NNE 13 20 30.02 1016 10 16 N/A
9:35 am 09:35 Sunny 67 19.4 59 14.8 75 75 N 6 9 30.02 1016 10 16 N/A
9:55 am 09:55 Sunny 68 20 58 14.7 72 72 N 10 17 30.01 1016 10 16 N/A
10:15 am 10:15 Sunny 68 20.2 56 13.5 66 66 NNE 10 17 30.01 1016 10 16 N/A
10:35 am 10:35 Sunny 69 20.4 56 13.4 64 64 N 10 17 30.01 1016 10 16 N/A
10:55 am 10:55 Sunny 69 20.6 56 13.1 62 62 NNE 7 11 30.01 1016 10 16 N/A
11:15 am 11:15 Sunny 70 21.2 57 13.8 63 63 N 10 17 30.01 1016 10 16 N/A
11:35 am 11:35 Sunny 70 21.2 55 13 60 60 NNE 10 17 30.02 1017 10 16 N/A
11:55 am 11:55 Sunny 71 21.5 54 12.4 56 56 N 13 20 30.02 1017 10 16 N/A
12:15 pm 12:15 Partly Cloudy 70 21.1 56 13.4 62 62 NNE 9 15 30.02 1017 10 16 N/A
12:35 pm 12:35 Partly Cloudy 70 21.3 55 12.8 59 59 N 7 11 30.02 1017 10 16 N/A
12:55 pm 12:55 Sunny 71 21.9 55 12.7 56 56 N 13 20 30.02 1017 10 16 N/A
1:15 pm 13:15 Partly Cloudy 72 22.2 55 13 56 56 N 10 17 30.01 1016 10 16 N/A
1:35 pm 13:35 Sunny 73 22.7 57 13.7 57 57 N 13 20 30.01 1016 10 16 N/A
1:55 pm 13:55 Partly Cloudy 73 22.5 55 12.9 55 55 N 13 20 30.01 1016 10 16 N/A
2:15 pm 14:15 Mostly Cloudy 73 22.6 55 13 55 55 NNE 8 13 30.01 1016 10 16 N/A
2:35 pm 14:35 Mostly Cloudy 72 22.3 56 13.2 56 56 N 12 19 30.01 1016 10 16 N/A
2:55 pm 14:55 Partly Cloudy 73 22.9 55 12.5 52 52 N 8 13 30.00 1016 10 16 N/A
3:15 pm 15:15 Mostly Cloudy 74 23.3 55 12.8 52 52 NNE 12 19 30.00 1016 10 16 N/A
3:35 pm 15:35 Mostly Cloudy 74 23.4 56 13.3 53 53 N 9 15 30.00 1016 10 16 N/A
3:55 pm 15:55 Cloudy 72 22.1 54 12.3 54 54 NNE 12 19 29.99 1016 10 16 N/A
4:15 pm 16:15 Partly Cloudy 73 22.9 55 12.6 52 52 N 7 11 29.99 1016 10 16 N/A
4:35 pm 16:35 Partly Cloudy 74 23.4 56 13.2 53 53 NNW 9 15 29.99 1015 10 16 N/A
4:55 pm 16:55 Partly Cloudy 75 24.1 56 13.5 52 52 N 9 15 29.98 1015 10 16 N/A
5:15 pm 17:15 Mostly Cloudy 73 22.9 54 12.4 52 52 N 7 11 29.97 1015 10 16 N/A
5:35 pm 17:35 Sunny 74 23.5 55 12.9 51 51 NNW 9 15 29.97 1015 10 16 N/A
5:55 pm 17:55 Sunny 74 23.5 54 12.4 50 50 NNW 10 17 29.97 1015 10 16 N/A
6:15 pm 18:15 Partly Cloudy 74 23.5 54 12.1 49 49 N 8 13 29.96 1014 7 11 N/A
6:35 pm 18:35 Sunny 74 23.4 54 12.2 49 49 NNW 9 15 29.96 1014 10 16 N/A
6:55 pm 18:55 Sunny 74 23.4 54 12.2 49 49 NNW 9 15 29.96 1014 10 16 N/A
7:15 pm 19:15 Sunny 74 23.3 54 12.3 50 50 NNW 9 15 29.97 1015 10 16 N/A
7:35 pm 19:35 Sunny 73 22.8 55 12.5 52 52 NNW 10 17 29.97 1015 10 16 N/A
7:55 pm 19:55 Sunny 73 22.5 54 12.3 53 53 NNW 8 13 29.97 1015 10 16 N/A
8:15 pm 20:15 Sunny 71 21.4 55 12.6 57 57 NNW 6 9 29.97 1015 10 16 N/A
8:35 pm 20:35 Sunny 69 20.7 55 12.9 61 61 NNW 5 7 29.97 1015 10 16 N/A
8:55 pm 20:55 Sunny 67 19.6 56 13.4 68 68 NNW 6 9 29.98 1015 10 16 N/A
9:15 pm 21:15 Clear 65 18.5 57 13.7 74 74 N N/A 29.98 1015 10 16 N/A
9:35 pm 21:35 Mostly Cloudy with Mist and Fog 63 17.1 60 15.6 91 91 NNW 3 6 29.98 1015 1 2 N/A
9:55 pm 21:55 Clear 62 16.4 60 15.6 95 95 N N/A 29.99 1016 10 16 N/A
10:15 pm 22:15 Clear 60 15.8 60 15.6 99 99 N N/A 29.99 1016 10 16 N/A
10:35 pm 22:35 Clear 60 15.7 59 14.9 95 95 N N/A 29.99 1016 10 16 N/A
10:55 pm 22:55 Clear 61 16 58 14.6 91 91 N N/A 29.99 1016 10 16 N/A
11:15 pm 23:15 Clear 60 15.4 59 15 97 97 N N/A 30.00 1016 10 16 N/A
11:35 pm 23:35 Clear 59 15 58 14.4 96 96 N N/A 30.00 1016 10 16 N/A
11:55 pm 23:55 Clear 60 15.7 58 14.3 91 91 NE 5 7 29.99 1016 10 16 N/A

Powered by AerisWeather